FW6905 Weather Reports


Display with metric or nautical units.
time (UTC)temp
F
wind
direction
speed
MPH
gust
MPH
rain 1hr
in
rain 24hr
in
rain mn
in
humidity
%
barometer
mb
20260831092507 83 130 2.0 4.0 0.00 0.00 0.00 53 1017.7
20260831092006 83 151 1.0 4.0 0.00 0.00 0.00 53 1017.7
20260831091006 82 153 3.0 5.0 0.00 0.00 0.00 54 1017.7
20260831085006 80 162 3.0 5.0 0.00 0.00 0.00 57 1017.7
20260831084506 80 152 3.0 5.0 0.00 0.00 0.00 56 1017.7
20260831084006 80 152 3.0 6.0 0.00 0.00 0.00 57 1017.7
20260831083506 79 149 4.0 6.0 0.00 0.00 0.00 58 1017.7
20260831083006 79 134 5.0 5.0 0.00 0.00 0.00 59 1017.7
20260831082506 78 143 2.0 6.0 0.00 0.00 0.00 60 1017.7
20260831082006 78 149 3.0 6.0 0.00 0.00 0.00 60 1017.7
20260831081506 78 125 4.0 6.0 0.00 0.00 0.00 60 1017.7
20260831081006 77 101 3.0 4.0 0.00 0.00 0.00 61 1017.7
20260831080506 76 110 2.0 4.0 0.00 0.00 0.00 63 1017.7
20260831080006 76 126 3.0 5.0 0.00 0.00 0.00 64 1017.7
20260831075506 76 121 2.0 6.0 0.00 0.00 0.00 65 1017.7
20260831074506 75 114 2.0 6.0 0.00 0.00 0.00 66 1017.7
20260831074006 74 109 4.0 6.0 0.00 0.00 0.00 67 1017.7
20260831073506 74 87 2.0 6.0 0.00 0.00 0.00 70 1017.7
20260831072506 73 95 3.0 8.0 0.00 0.00 0.00 70 1017.7
20260831072006 73 104 2.0 8.0 0.00 0.00 0.00 72 1017.7
20260831071506 72 113 2.0 6.0 0.00 0.00 0.00 73 1017.7
20260831071006 72 112 3.0 6.0 0.00 0.00 0.00 74 1017.7
20260831070506 71 107 2.0 5.0 0.00 0.00 0.00 78 1017.7
20260831065506 70 92 3.0 7.0 0.00 0.00 0.00 77 1017.7
20260831064506 69 97 5.0 7.0 0.00 0.00 0.00 84 1017.7
20260831064006 69 91 4.0 6.0 0.00 0.00 0.00 85 1017.7
20260831062506 67 146 3.0 5.0 0.00 0.00 0.00 88 1017.7
20260831062006 67 158 1.0 4.0 0.00 0.00 0.00 89 1017.7
20260831061506 66 135 2.0 4.0 0.00 0.00 0.00 90 1017.7
20260831061007 66 120 3.0 4.0 0.00 0.00 0.00 90 1016.7
20260831060506 66 121 1.0 5.0 0.00 0.00 0.00 92 1016.7
20260831060006 65 118 2.0 5.0 0.00 0.00 0.00 92 1016.7
20260831055506 65 124 2.0 5.0 0.00 0.00 0.00 92 1017.7
20260831055006 65 125 2.0 3.0 0.00 0.00 0.00 92 1017.7
20260831054506 64 127 1.0 3.0 0.00 0.00 0.00 93 1017.7
20260831053505 64 0 0.0 0.0 0.00 0.00 0.00 89 1017.7
20260831053006 63 0 0.0 0.0 0.00 0.00 0.00 89 1017.7
20260831052505 63 0 0.0 0.0 0.00 0.00 0.00 89 1017.7
20260831052006 63 0 0.0 0.0 0.00 0.00 0.00 90 1017.7
20260831051505 63 0 0.0 0.0 0.00 0.00 0.00 89 1017.7
20260831050506 63 0 0.0 0.0 0.00 0.00 0.00 89 1017.7
20260831050006 63 0 0.0 0.0 0.00 0.00 0.00 89 1017.7
20260831045506 63 0 0.0 0.0 0.00 0.00 0.00 89 1016.7
20260831045006 63 0 0.0 0.0 0.00 0.00 0.00 89 1016.7
20260831044006 63 0 0.0 0.0 0.00 0.00 0.00 89 1016.7
20260831043506 63 0 0.0 0.0 0.00 0.00 0.00 88 1016.7
20260831043006 63 0 0.0 0.0 0.00 0.00 0.00 88 1016.7
20260831042506 63 0 0.0 0.0 0.00 0.00 0.00 88 1016.7
20260831042005 63 0 0.0 0.0 0.00 0.00 0.00 88 1016.7
20260831041506 63 0 0.0 0.0 0.00 0.00 0.00 88 1016.7
20260831040506 64 0 0.0 0.0 0.00 0.00 0.00 88 1016.7
20260831040005 64 0 0.0 0.0 0.00 0.00 0.00 88 1016.7
20260831035506 64 0 0.0 0.0 0.00 0.00 0.00 88 1016.7
20260831034506 64 0 0.0 0.0 0.00 0.00 0.00 88 1016.7
20260831034005 64 270 0.0 1.0 0.00 0.00 0.00 88 1017.7
20260831033506 64 307 0.0 2.0 0.00 0.00 0.00 88 1017.7
20260831033006 64 314 1.0 2.0 0.00 0.00 0.00 87 1017.7
20260831032505 64 0 0.0 0.0 0.00 0.00 0.00 87 1016.7
20260831032006 64 0 0.0 0.0 0.00 0.00 0.00 87 1016.7
20260831031506 64 0 0.0 0.0 0.00 0.00 0.00 88 1016.7
20260831030506 64 0 0.0 0.0 0.00 0.00 0.00 87 1017.7
20260831025506 64 0 0.0 0.0 0.00 0.00 0.00 87 1017.7
20260831025006 64 0 0.0 0.0 0.00 0.00 0.00 87 1017.7
20260831024506 64 0 0.0 0.0 0.00 0.00 0.00 87 1017.7
20260831024006 64 314 0.0 2.0 0.00 0.00 0.00 87 1017.7
20260831023505 64 314 0.0 2.0 0.00 0.00 0.00 87 1017.7
20260831023006 64 314 0.0 1.0 0.00 0.00 0.00 87 1017.7
20260831022506 64 0 0.0 0.0 0.00 0.00 0.00 86 1017.7
20260831021506 64 0 0.0 0.0 0.00 0.00 0.00 87 1017.7
20260831021006 64 0 0.0 0.0 0.00 0.00 0.00 86 1017.7
20260831020006 64 0 0.0 0.0 0.00 0.00 0.00 87 1017.7
20260831015006 64 315 0.0 1.0 0.00 0.00 0.00 86 1017.7
20260831014006 65 0 0.0 0.0 0.00 0.00 0.00 86 1017.7
20260831013506 65 203 0.0 2.0 0.00 0.00 0.00 86 1017.7
20260831012506 65 318 0.0 2.0 0.00 0.00 0.00 86 1017.7
20260831012005 65 334 1.0 2.0 0.00 0.00 0.00 85 1017.7
20260831010506 65 68 0.0 1.0 0.00 0.00 0.00 85 1017.7
20260831010005 65 0 0.0 0.0 0.00 0.00 0.00 85 1017.7
20260831005006 65 0 0.0 0.0 0.00 0.00 0.00 85 1017.7
20260831004505 65 329 0.0 2.0 0.00 0.00 0.00 85 1017.7
20260831004006 65 329 0.0 2.0 0.00 0.00 0.00 85 1017.7
20260831003505 65 337 0.0 2.0 0.00 0.00 0.00 85 1017.7
20260831003005 65 28 0.0 2.0 0.00 0.00 0.00 85 1017.7
20260831002506 65 56 0.0 2.0 0.00 0.00 0.00 85 1017.7
20260831002005 65 328 0.0 2.0 0.00 0.00 0.00 85 1017.7
20260831001506 65 356 0.0 2.0 0.00 0.00 0.00 85 1017.7
20260831000005 65 158 0.0 2.0 0.00 0.00 0.00 85 1017.7
20260830235506 65 158 0.0 2.0 0.00 0.00 0.00 84 1017.7
20260830235006 66 312 0.0 2.0 0.00 0.00 0.00 85 1017.7
20260830234506 66 314 0.0 2.0 0.00 0.00 0.00 84 1017.7
20260830234006 66 46 0.0 2.0 0.00 0.00 0.00 84 1017.7
20260830233505 66 46 0.0 2.0 0.00 0.00 0.00 84 1017.7
20260830233006 66 45 0.0 2.0 0.00 0.00 0.00 84 1017.7
20260830232505 66 45 0.0 2.0 0.00 0.00 0.00 84 1016.7
20260830232006 66 314 0.0 1.0 0.00 0.00 0.00 84 1016.7
20260830231505 66 314 0.0 2.0 0.00 0.00 0.00 84 1016.7
20260830231006 66 314 0.0 2.0 0.00 0.00 0.00 84 1017.7
20260830230506 66 314 1.0 2.0 0.00 0.00 0.00 84 1017.7
20260830230006 66 0 0.0 0.0 0.00 0.00 0.00 82 1017.7
20260830225506 66 0 0.0 0.0 0.00 0.00 0.00 82 1016.7
20260830225006 66 314 0.0 2.0 0.00 0.00 0.00 81 1016.7
20260830224006 66 322 1.0 2.0 0.00 0.00 0.00 81 1017.7
20260830223006 66 337 0.0 2.0 0.00 0.00 0.00 81 1017.7
20260830222505 67 337 0.0 2.0 0.00 0.00 0.00 80 1017.7
20260830222006 67 338 0.0 2.0 0.00 0.00 0.00 80 1017.7
20260830221505 67 337 0.0 2.0 0.00 0.00 0.00 80 1017.7
20260830221006 67 337 0.0 2.0 0.00 0.00 0.00 80 1018.8
20260830220506 67 337 0.0 2.0 0.00 0.00 0.00 80 1018.8
20260830215505 67 0 0.0 0.0 0.00 0.00 0.00 79 1016.7
20260830214505 67 0 0.0 0.0 0.00 0.00 0.00 79 1016.7
20260830214006 67 0 0.0 0.0 0.00 0.00 0.00 79 1016.7
20260830213506 67 314 0.0 2.0 0.00 0.00 0.00 80 1016.7
20260830213006 67 314 0.0 2.0 0.00 0.00 0.00 79 1016.7
20260830212006 68 0 0.0 0.0 0.00 0.00 0.00 78 1018.8
20260830211006 68 59 0.0 2.0 0.00 0.00 0.00 76 1017.7
20260830210505 68 135 0.0 2.0 0.00 0.00 0.00 76 1017.7
20260830205505 68 127 0.0 2.0 0.00 0.00 0.00 76 1017.7
20260830205006 68 90 0.0 2.0 0.00 0.00 0.00 75 1017.7
20260830204505 69 90 0.0 2.0 0.00 0.00 0.00 74 1017.7
20260830204006 69 92 2.0 3.0 0.00 0.00 0.00 75 1017.7
20260830203506 69 81 0.0 3.0 0.00 0.00 0.00 73 1017.7
20260830203006 69 62 2.0 3.0 0.00 0.00 0.00 73 1017.7
20260830202005 69 68 0.0 2.0 0.00 0.00 0.00 73 1017.7
20260830201005 69 68 0.0 2.0 0.00 0.00 0.00 72 1017.7
20260830200506 70 68 0.0 2.0 0.00 0.00 0.00 72 1017.7
20260830200006 70 68 0.0 2.0 0.00 0.00 0.00 71 1017.7
20260830195505 70 68 0.0 2.0 0.00 0.00 0.00 70 1017.7
20260830195006 70 68 0.0 2.0 0.00 0.00 0.00 70 1017.7
20260830194505 70 68 0.0 2.0 0.00 0.00 0.00 70 1017.7
20260830194006 70 68 0.0 1.0 0.00 0.00 0.00 69 1017.7
20260830193506 71 68 0.0 2.0 0.00 0.00 0.00 69 1017.7
20260830193005 71 68 0.0 2.0 0.00 0.00 0.00 69 1017.7
20260830192506 71 68 0.0 2.0 0.00 0.00 0.00 68 1017.7
20260830192006 71 79 0.0 2.0 0.00 0.00 0.00 67 1017.7
20260830191505 71 88 1.0 2.0 0.00 0.00 0.00 67 1017.7
20260830191006 72 90 1.0 2.0 0.00 0.00 0.00 66 1017.7
20260830190505 72 68 0.0 1.0 0.00 0.00 0.00 66 1017.7
20260830190006 72 68 0.0 2.0 0.00 0.00 0.00 64 1017.7
20260830185506 72 68 0.0 2.0 0.00 0.00 0.00 64 1016.7
20260830184506 73 68 0.0 2.0 0.00 0.00 0.00 64 1016.7
20260830183506 74 80 0.0 3.0 0.00 0.00 0.00 62 1016.7
20260830183005 74 88 2.0 4.0 0.00 0.00 0.00 61 1016.7
20260830182506 74 79 1.0 4.0 0.00 0.00 0.00 60 1016.7
20260830181506 75 45 0.0 2.0 0.00 0.00 0.00 59 1016.7
20260830181005 75 45 2.0 2.0 0.00 0.00 0.00 58 1015.7
20260830180506 76 45 0.0 2.0 0.00 0.00 0.00 58 1015.7
20260830180005 76 59 1.0 2.0 0.00 0.00 0.00 58 1015.7
20260830175505 77 65 0.0 2.0 0.00 0.00 0.00 57 1015.7
20260830174505 77 81 0.0 2.0 0.00 0.00 0.00 54 1015.7
20260830173005 79 44 1.0 2.0 0.00 0.00 0.00 53 1015.7
20260830172506 79 45 0.0 2.0 0.00 0.00 0.00 52 1015.7
20260830172005 80 37 1.0 2.0 0.00 0.00 0.00 52 1015.7
20260830171506 80 23 2.0 2.0 0.00 0.00 0.00 50 1015.7
20260830171005 81 13 1.0 2.0 0.00 0.00 0.00 48 1015.7
20260830170506 81 31 0.0 2.0 0.00 0.00 0.00 47 1015.7
20260830170005 82 27 2.0 2.0 0.00 0.00 0.00 47 1015.7
20260830165505 82 15 0.0 2.0 0.00 0.00 0.00 46 1014.7
20260830164006 83 359 1.0 2.0 0.00 0.00 0.00 44 1015.7
20260830163505 83 4 2.0 2.0 0.00 0.00 0.00 43 1015.7
20260830163006 84 36 0.0 2.0 0.00 0.00 0.00 42 1015.7
20260830162505 84 211 0.0 2.0 0.00 0.00 0.00 41 1015.7
20260830162006 84 215 0.0 2.0 0.00 0.00 0.00 40 1015.7
20260830161505 85 236 2.0 2.0 0.00 0.00 0.00 39 1015.7
20260830161006 85 284 0.0 2.0 0.00 0.00 0.00 40 1015.7
20260830160505 85 280 1.0 2.0 0.00 0.00 0.00 38 1015.7
20260830160005 85 283 2.0 2.0 0.00 0.00 0.00 38 1015.7
20260830155506 86 297 1.0 3.0 0.00 0.00 0.00 37 1015.7
20260830155005 86 304 2.0 3.0 0.00 0.00 0.00 37 1015.7
20260830154506 86 220 0.0 2.0 0.00 0.00 0.00 36 1015.7
20260830154005 86 212 1.0 2.0 0.00 0.00 0.00 36 1015.7
20260830153506 87 204 1.0 2.0 0.00 0.00 0.00 36 1015.7
20260830153005 87 218 1.0 2.0 0.00 0.00 0.00 37 1015.7
20260830152506 87 256 2.0 4.0 0.00 0.00 0.00 36 1015.7
20260830152005 87 275 2.0 4.0 0.00 0.00 0.00 35 1015.7
20260830151505 87 271 2.0 4.0 0.00 0.00 0.00 35 1015.7
20260830151006 88 240 1.0 3.0 0.00 0.00 0.00 35 1015.7
20260830150006 88 295 2.0 4.0 0.00 0.00 0.00 33 1015.7
20260830145006 88 291 2.0 4.0 0.00 0.00 0.00 33 1015.7
20260830144505 88 259 1.0 4.0 0.00 0.00 0.00 34 1015.7
20260830144005 89 250 2.0 3.0 0.00 0.00 0.00 33 1015.7
20260830143506 89 254 1.0 3.0 0.00 0.00 0.00 33 1015.7
20260830143005 89 205 2.0 3.0 0.00 0.00 0.00 33 1015.7
20260830142505 89 164 2.0 4.0 0.00 0.00 0.00 33 1015.7
20260830142006 89 138 3.0 4.0 0.00 0.00 0.00 33 1015.7
20260830141505 89 134 2.0 4.0 0.00 0.00 0.00 33 1015.7
20260830141006 89 154 2.0 4.0 0.00 0.00 0.00 33 1016.7
20260830140505 89 265 0.0 6.0 0.00 0.00 0.00 31 1016.7
20260830140005 89 281 2.0 6.0 0.00 0.00 0.00 33 1016.7
20260830135005 90 179 1.0 4.0 0.00 0.00 0.00 32 1016.7
20260830133505 90 153 2.0 3.0 0.00 0.00 0.00 32 1016.7
20260830133005 90 86 1.0 6.0 0.00 0.00 0.00 31 1016.7
20260830132006 90 123 2.0 6.0 0.00 0.00 0.00 32 1016.7
20260830131505 90 165 3.0 6.0 0.00 0.00 0.00 33 1016.7
20260830131006 90 198 3.0 5.0 0.00 0.00 0.00 33 1016.7
20260830130505 90 209 2.0 5.0 0.00 0.00 0.00 32 1016.7
20260830130005 90 205 3.0 6.0 0.00 0.00 0.00 32 1016.7
20260830125505 90 167 2.0 6.0 0.00 0.00 0.00 32 1016.7
20260830125006 90 140 3.0 5.0 0.00 0.00 0.00 32 1016.7
20260830124505 90 113 3.0 5.0 0.00 0.00 0.00 32 1016.7
20260830124005 90 70 2.0 7.0 0.00 0.00 0.00 31 1016.7
20260830123505 90 53 4.0 7.0 0.00 0.00 0.00 32 1016.7
20260830123005 90 351 4.0 6.0 0.00 0.00 0.00 32 1016.7
20260830122505 90 270 2.0 5.0 0.00 0.00 0.00 33 1016.7
20260830122005 90 280 3.0 5.0 0.00 0.00 0.00 33 1016.7
20260830121505 90 338 2.0 4.0 0.00 0.00 0.00 33 1016.7
20260830121005 90 44 1.0 4.0 0.00 0.00 0.00 33 1016.7
20260830120506 90 52 2.0 6.0 0.00 0.00 0.00 33 1016.7
20260830120005 90 88 2.0 6.0 0.00 0.00 0.00 33 1016.7
20260830115505 90 163 2.0 4.0 0.00 0.00 0.00 35 1017.7
20260830115005 90 183 2.0 5.0 0.00 0.00 0.00 33 1017.7
20260830114505 90 156 3.0 5.0 0.00 0.00 0.00 34 1017.7
20260830114006 89 120 2.0 5.0 0.00 0.00 0.00 34 1017.7
20260830113506 89 74 2.0 4.0 0.00 0.00 0.00 34 1017.7
20260830113005 89 42 2.0 6.0 0.00 0.00 0.00 33 1017.7
20260830111505 88 68 2.0 6.0 0.00 0.00 0.00 35 1017.7
20260830111005 88 57 3.0 8.0 0.00 0.00 0.00 34 1017.7
20260830110505 88 58 4.0 9.0 0.00 0.00 0.00 35 1017.7
20260830110006 88 59 6.0 9.0 0.00 0.00 0.00 35 1017.7
20260830105505 87 62 6.0 10.0 0.00 0.00 0.00 35 1017.7
20260830105005 87 70 7.0 10.0 0.00 0.00 0.00 37 1017.7
20260830104505 87 75 4.0 9.0 0.00 0.00 0.00 38 1017.7
20260830104005 87 67 5.0 8.0 0.00 0.00 0.00 39 1017.7
20260830101505 86 48 4.0 10.0 0.00 0.00 0.00 40 1016.7
20260830101005 86 52 4.0 11.0 0.00 0.00 0.00 42 1017.7
20260830100505 85 57 5.0 11.0 0.00 0.00 0.00 42 1017.7
20260830100005 85 70 5.0 10.0 0.00 0.00 0.00 43 1017.7
20260830095505 85 75 7.0 11.0 0.00 0.00 0.00 43 1016.7
20260830095005 85 72 5.0 11.0 0.00 0.00 0.00 44 1016.7
20260830094505 85 80 4.0 11.0 0.00 0.00 0.00 45 1016.7
20260830094005 84 72 3.0 12.0 0.00 0.00 0.00 46 1017.7
20260830093505 84 73 6.0 12.0 0.00 0.00 0.00 47 1017.7
20260830093005 84 80 6.0 9.0 0.00 0.00 0.00 48 1017.7